Location: Baller�as
(41.9020°N, 0.1554°W)
Time: 00:22:22
(UTC+00:00)

SL-4 R/B - Pass Details

Date: 10 August 2020
Orbit: 428 x 665 km, 51.6° (Epoch: 22 September)

Event Time Altitude Azimuth Distance (km) Brightness Sun altitude
Rises 22:07:45 0° 282° (WNW) 2,627 6.1 -26.7°
Reaches altitude 10° 22:10:28 10° 300° (WNW) 1,693 5.3 -27.0°
Maximum altitude 22:13:20 20° 349° (N) 1,161 4.3 -27.3°
Enters shadow 22:15:11 14° 27° (NNE) 1,380 4.4 -27.4°
